Wind_Speed
5 9 11 13 9 8 9 9 11 8 4 7 11 12 13 14 13 16 18 18 18 18 16 15 18 21 22 22 24 25 26 28 31 32 29 24 23 21 19 18 16 14 12 12
6 12 10 7 7 9 9 12 13 10 3 6 11 14 14 16 18 19 16 16 16 15 15 16 18 23 25 25 25 25 27 29 34 33 29 27 23 21 18 17 16 15 14 15
11 3 3 8 11 11 13 13 10 10 8 12 10 18 13 10 11 14 17 15 11 9 10 12 15 18 24 24 24 25 27 31 35 33 32 28 25 22 20 17 14 14 13 15
8 6 9 9 8 11 12 10 13 10 7 7 2 6 5 8 9 12 13 9 7 4 4 6 11 14 16 17 21 21 23 32 32 34 34 29 26 19 16 15 13 14 15 16
4 6 9 11 11 10 3 3 6 7 9 7 13 6 4 8 13 9 6 8 3 2 5 7 8 8 9 12 16 16 21 25 30 31 27 27 23 19 19 18 17 16 16 15
8 2 5 5 5 11 4 6 6 6 8 10 16 11 7 6 5 2 5 5 2 5 7 8 8 8 9 11 10 11 15 19 25 30 28 27 26 25 21 21 18 15 14 13
8 14 5 8 8 8 10 7 5 6 6 8 3 6 13 9 11 7 4 3 2 6 8 7 7 8 8 9 11 14 16 23 26 30 28 23 21 20 20 17 13 12 11 14
6 6 14 13 12 5 15 10 7 7 8 10 8 8 7 4 6 6 10 7 5 6 6 7 9 10 11 13 15 17 21 23 26 24 24 21 23 22 17 15 13 13 14 16
5 5 5 6 5 10 7 9 5 13 17 12 12 17 13 15 10 9 8 7 6 6 6 9 11 13 13 14 16 18 19 19 19 21 23 25 24 22 19 17 15 16 16 17
2 6 6 7 6 6 9 4 4 6 7 15 11 12 9 6 10 11 10 11 7 7 8 10 13 15 15 16 16 17 18 19 19 20 21 21 22 20 18 18 18 18 18 21
7 7 5 5 11 15 7 10 9 9 10 14 16 9 6 4 3 7 8 7 7 8 9 9 13 17 18 19 20 22 23 21 21 22 22 23 22 21 21 20 19 18 20 23
11 5 11 20 5 5 10 17 18 12 15 13 15 17 16 16 14 12 14 9 8 7 7 10 14 17 20 23 23 25 24 24 21 25 26 25 23 22 20 19 17 18 23 27
9 8 11 15 13 8 10 14 17 19 18 25 18 8 4 6 10 17 15 12 9 9 13 16 16 18 22 25 28 28 27 30 32 30 27 26 24 21 19 16 17 23 30 30
8 15 15 16 19 14 14 13 18 20 17 20 25 29 22 16 18 20 20 23 27 22 22 21 21 24 24 25 28 29 29 33 32 30 27 25 21 18 15 16 19 32 27 28
6 20 22 24 24 21 22 28 27 28 24 26 33 34 21 21 22 22 29 23 24 26 27 26 25 23 23 23 25 28 27 34 33 28 25 21 18 15 15 18 28 23 25 29
9 15 15 27 24 24 33 33 28 32 33 36 36 45 18 33 34 32 34 35 31 29 26 24 20 21 22 23 25 27 31 34 30 27 23 21 17 15 15 26 21 24 28 26
10 5 9 25 20 19 27 23 33 36 32 34 33 41 18 25 27 28 30 29 27 24 22 21 22 20 20 21 23 25 27 31 29 27 23 19 15 14 22 19 21 22 22 23
12 14 11 6 3 14 16 10 11 17 25 27 33 34 33 35 41 36 30 32 28 24 22 23 23 20 20 16 18 22 27 29 28 23 18 15 14 18 17 19 22 22 19 19
21 16 5 6 10 22 35 21 14 14 31 25 27 28 29 38 34 27 29 27 25 22 19 17 18 18 17 16 20 26 29 27 23 18 14 14 15 14 17 19 19 19 21 18
26 22 13 5 7 16 30 4 9 19 28 17 25 24 25 28 15 14 16 16 14 14 15 16 16 16 15 19 26 29 23 21 17 15 15 16 15 14 17 16 14 13 13 14
16 16 22 19 11 14 23 7 11 14 6 5 11 18 22 16 20 15 8 9 12 11 12 12 12 13 17 23 27 24 21 17 16 17 16 15 14 14 14 14 12 13 15 17
16 10 14 16 15 23 11 18 24 15 16 11 11 16 20 21 17 9 10 11 12 11 11 10 14 17 21 24 21 18 16 15 16 16 16 16 16 15 15 15 15 15 18 18
12 14 12 14 12 16 10 21 26 30 23 13 9 7 8 9 9 8 8 10 10 10 13 15 17 21 21 19 16 15 15 15 15 15 16 16 16 18 18 18 18 18 15 15
9 8 13 8 18 21 14 18 9 9 14 12 8 6 4 8 10 12 12 10 13 16 18 18 17 18 17 16 15 14 15 15 14 14 15 17 19 21 21 17 15 17 16 12
5 4 10 11 14 7 10 14 16 16 12 10 9 9 11 14 17 16 15 17 19 19 17 17 15 15 13 13 12 13 13 13 13 13 13 13 15 14 12 13 16 18 14 13
3 3 4 2 4 5 3 2 10 14 16 14 14 17 23 22 24 21 18 17 20 20 21 20 17 15 14 12 11 12 13 13 13 16 13 13 14 13 15 17 19 17 13 12
Wind_Direction
213 239 224 226 229 294 276 266 269 270 272 279 262 265 265 264 243 249 248 244 239 240 241 227 220 221 222 219 219 215 214 214 215 213 207 200 196 195 206 211 225 233 237 265
221 243 258 244 244 242 246 262 265 273 291 246 280 276 268 265 261 261 266 260 259 252 240 236 229 231 234 231 223 219 215 211 219 217 211 208 200 205 217 222 232 230 242 252
248 46 68 202 219 225 230 244 262 272 303 252 278 267 235 239 241 256 262 258 258 254 249 242 234 237 240 239 232 223 217 216 219 213 209 205 202 209 218 219 214 230 227 249
252 233 236 241 245 222 235 226 247 264 267 277 6 287 242 242 260 254 248 231 250 246 271 266 247 242 241 240 233 224 215 222 214 211 209 207 204 206 209 211 208 216 240 259
110 194 215 236 246 197 219 181 224 253 264 298 261 254 224 188 272 268 231 211 179 316 301 283 276 264 254 244 244 222 212 219 213 209 205 205 206 211 209 206 209 231 254 263
260 214 234 228 200 204 132 190 213 236 257 251 247 227 272 246 269 124 110 125 11 321 296 280 268 259 244 243 242 228 223 220 212 208 203 202 208 207 203 204 222 239 251 266
200 221 210 207 181 190 225 237 257 225 206 261 104 230 258 271 262 265 253 227 304 277 278 273 261 261 253 242 231 218 208 207 204 204 202 199 207 201 205 215 226 240 255 266
231 206 196 192 225 213 207 238 261 279 277 289 167 249 255 235 310 259 239 256 253 264 256 260 243 233 234 235 221 216 208 208 206 205 196 197 193 202 206 216 231 245 252 262
220 243 176 195 209 216 176 216 272 273 267 268 253 263 265 251 249 252 231 226 266 242 235 241 238 238 239 235 226 219 209 205 201 199 194 198 205 211 218 228 236 249 259 268
206 266 211 161 196 218 262 123 216 205 267 270 254 265 258 255 242 243 235 242 230 227 231 231 224 228 225 223 219 211 202 201 198 198 202 206 215 222 228 237 247 258 267 272
231 234 187 194 215 232 194 232 243 286 268 271 282 269 29 247 253 225 243 215 226 252 251 243 238 232 228 224 217 216 210 201 201 204 211 219 226 231 237 246 258 266 276 282
211 249 242 242 223 298 282 263 244 248 265 238 263 267 258 254 268 254 243 224 228 233 235 252 245 234 230 225 220 219 215 212 212 217 222 227 233 238 244 253 259 271 288 285
180 216 247 244 230 220 241 240 250 261 265 261 266 251 130 201 223 232 226 237 254 254 265 268 248 240 240 234 224 218 217 221 223 225 229 234 235 240 245 238 261 294 285 284
191 244 238 248 255 264 246 226 245 253 256 270 253 268 255 246 238 248 241 253 278 278 274 271 266 265 250 240 232 225 222 226 229 232 233 232 233 223 226 252 277 283 278 287
218 249 254 254 261 271 271 265 260 255 255 256 272 270 270 263 261 265 268 267 273 275 274 276 274 266 254 243 231 228 224 232 231 229 226 218 209 222 240 267 286 278 287 291
210 258 278 271 277 277 268 259 259 261 258 263 270 269 251 265 277 271 269 273 275 269 270 269 262 257 254 244 229 223 222 227 222 215 200 203 215 235 263 283 274 282 290 294
225 232 243 257 256 275 268 254 248 251 252 250 256 265 286 275 271 272 278 276 270 270 269 266 265 260 256 243 228 212 207 214 202 193 196 210 230 258 273 270 278 290 293 298
227 228 231 262 132 226 245 246 225 250 249 245 253 261 265 266 273 280 284 276 276 273 271 266 269 259 259 240 215 193 192 192 190 194 204 218 238 255 260 269 281 290 295 293
223 228 230 223 215 270 271 259 246 236 257 244 254 258 262 268 273 269 263 269 269 274 275 269 265 261 249 220 193 186 185 186 191 199 211 227 244 252 260 279 285 290 298 301
219 221 217 188 223 242 264 200 255 229 263 236 247 249 256 263 260 256 264 256 261 262 264 264 260 248 219 190 188 188 178 183 192 205 214 233 239 249 271 281 282 289 293 297
206 211 215 220 232 258 260 199 138 201 244 172 241 244 249 244 241 260 244 238 252 260 267 261 240 210 188 181 181 182 188 194 201 216 222 228 243 262 278 275 273 281 287 291
189 189 215 224 223 244 225 230 212 235 276 283 252 249 250 251 245 255 250 249 261 259 245 210 167 163 168 174 182 191 200 205 209 219 227 240 255 269 275 274 271 278 288 284
221 209 206 202 225 243 251 235 236 241 256 258 239 236 234 237 238 257 260 259 243 205 177 169 167 169 173 179 192 201 208 217 224 231 242 254 267 276 278 274 275 284 281 284
227 232 234 220 227 247 253 239 233 222 234 229 190 196 239 260 267 266 258 229 203 184 178 172 170 176 182 189 194 207 215 221 233 248 262 274 280 284 276 263 274 281 280 272
237 194 231 251 261 263 255 239 244 252 211 213 225 240 249 260 262 259 244 216 200 185 181 177 176 183 192 199 210 221 229 238 251 263 276 287 287 287 276 273 274 270 260 266
262 267 231 274 321 245 303 249 223 233 246 252 257 263 274 266 265 256 229 206 192 183 183 184 188 188 198 205 220 233 243 253 267 279 285 274 267 272 280 279 278 250 242 248
Height
1504 1501 1496 1489 1491 1492 1494 1493 1490 1485 1485 1492 1483 1478 1475 1473 1475 1476 1475 1475 1476 1478 1480 1481 1482 1484 1487 1489 1491 1492 1493 1495 1497 1500 1503 1508 1512 1516 1518 1520 1523 1525 1527 1528
1502 1496 1489 1492 1496 1498 1496 1495 1489 1484 1485 1491 1479 1475 1470 1468 1467 1466 1467 1467 1469 1472 1475 1476 1476 1477 1478 1481 1484 1486 1487 1488 1489 1495 1500 1503 1508 1511 1515 1517 1519 1521 1523 1524
1493 1492 1496 1495 1493 1496 1493 1492 1488 1490 1482 1480 1483 1469 1460 1461 1463 1465 1464 1465 1467 1469 1470 1471 1472 1472 1473 1474 1476 1478 1482 1482 1484 1490 1495 1500 1504 1507 1511 1514 1515 1516 1518 1519
1492 1490 1495 1494 1492 1490 1489 1484 1488 1488 1488 1483 1480 1480 1458 1458 1457 1456 1457 1461 1463 1465 1466 1466 1467 1468 1469 1470 1471 1473 1477 1477 1481 1486 1490 1495 1499 1504 1507 1510 1514 1514 1515 1515
1486 1489 1491 1492 1486 1488 1484 1486 1486 1485 1485 1485 1475 1484 1450 1457 1455 1446 1449 1457 1463 1464 1465 1466 1466 1467 1468 1467 1466 1469 1473 1476 1479 1486 1491 1494 1498 1501 1505 1506 1509 1510 1511 1512
1485 1489 1486 1481 1483 1486 1486 1486 1486 1486 1483 1488 1466 1474 1450 1447 1448 1448 1454 1459 1462 1464 1464 1463 1462 1462 1463 1464 1466 1469 1472 1474 1477 1481 1485 1488 1491 1493 1497 1500 1503 1504 1504 1505
1480 1480 1480 1482 1481 1487 1485 1484 1484 1484 1486 1474 1471 1474 1455 1446 1445 1449 1452 1457 1461 1460 1460 1460 1460 1460 1461 1462 1463 1464 1466 1468 1472 1475 1480 1486 1489 1493 1496 1495 1498 1500 1500 1501
1474 1478 1474 1474 1473 1473 1477 1475 1480 1490 1476 1467 1474 1468 1448 1443 1446 1448 1453 1455 1456 1458 1459 1459 1458 1457 1458 1459 1460 1461 1463 1465 1467 1473 1477 1479 1483 1487 1489 1490 1493 1494 1494 1494
1474 1473 1470 1471 1473 1473 1474 1480 1468 1477 1472 1479 1460 1444 1434 1439 1443 1447 1449 1452 1454 1456 1456 1456 1457 1456 1457 1459 1460 1461 1464 1467 1470 1470 1472 1476 1480 1481 1484 1485 1487 1488 1489 1490
1469 1476 1469 1470 1472 1473 1472 1465 1477 1474 1485 1475 1446 1442 1445 1440 1440 1440 1443 1446 1449 1450 1451 1452 1453 1455 1456 1457 1460 1461 1464 1465 1468 1471 1473 1474 1477 1480 1481 1482 1483 1484 1486 1485
1466 1471 1471 1475 1468 1459 1470 1471 1469 1464 1461 1466 1461 1446 1431 1434 1437 1439 1439 1444 1445 1446 1447 1447 1448 1449 1450 1453 1455 1456 1457 1460 1461 1464 1468 1470 1471 1473 1476 1478 1480 1482 1482 1480
1467 1466 1467 1460 1457 1462 1460 1455 1457 1465 1461 1449 1450 1445 1431 1434 1435 1438 1438 1439 1439 1440 1441 1442 1442 1443 1444 1445 1447 1449 1453 1454 1457 1458 1459 1462 1465 1468 1469 1472 1474 1474 1472 1472
1467 1467 1469 1465 1459 1461 1459 1455 1456 1452 1450 1448 1452 1439 1431 1434 1434 1431 1430 1433 1435 1436 1435 1435 1436 1436 1437 1437 1438 1438 1441 1443 1446 1449 1452 1455 1457 1460 1462 1464 1466 1465 1467 1466
1461 1454 1455 1457 1449 1442 1447 1450 1448 1450 1450 1443 1420 1421 1428 1429 1428 1426 1429 1428 1428 1430 1430 1430 1429 1430 1429 1430 1433 1433 1434 1435 1439 1443 1446 1449 1451 1451 1456 1460 1459 1459 1457 1455
1458 1453 1448 1442 1442 1443 1443 1437 1438 1438 1436 1439 1401 1403 1420 1416 1413 1416 1418 1420 1423 1423 1421 1421 1420 1421 1422 1421 1422 1425 1428 1428 1432 1437 1440 1443 1446 1448 1449 1450 1450 1452 1449 1449
1451 1450 1455 1446 1447 1445 1438 1432 1435 1429 1422 1414 1408 1370 1419 1407 1409 1409 1409 1411 1411 1412 1412 1412 1411 1410 1411 1412 1411 1413 1415 1419 1424 1429 1434 1436 1439 1440 1441 1441 1444 1444 1442 1439
1452 1458 1461 1444 1446 1446 1426 1418 1418 1410 1413 1411 1404 1370 1407 1401 1398 1399 1400 1402 1401 1403 1403 1404 1404 1402 1400 1402 1402 1404 1408 1411 1418 1423 1425 1428 1432 1433 1434 1437 1437 1437 1435 1432
1445 1452 1457 1451 1454 1450 1388 1393 1399 1402 1395 1399 1389 1385 1390 1389 1391 1393 1395 1394 1394 1396 1397 1396 1396 1393 1393 1394 1395 1399 1402 1407 1414 1419 1422 1424 1424 1426 1429 1429 1429 1428 1426 1423
1435 1443 1448 1446 1444 1416 1377 1393 1395 1396 1374 1387 1384 1380 1380 1381 1382 1384 1386 1388 1389 1391 1391 1390 1391 1389 1388 1387 1390 1394 1397 1403 1409 1414 1416 1419 1420 1421 1423 1424 1424 1421 1419 1416
1422 1427 1436 1440 1431 1417 1342 1378 1376 1384 1361 1376 1373 1372 1375 1377 1376 1371 1376 1379 1381 1379 1381 1383 1383 1383 1383 1384 1387 1392 1395 1399 1403 1408 1411 1413 1414 1415 1417 1417 1418 1415 1415 1412
1411 1414 1414 1413 1415 1391 1361 1376 1383 1393 1361 1361 1369 1369 1370 1369 1367 1367 1372 1374 1377 1375 1376 1378 1377 1380 1382 1384 1389 1392 1395 1398 1399 1403 1405 1407 1409 1410 1410 1410 1413 1412 1407 1407
1388 1400 1396 1398 1399 1386 1361 1366 1373 1355 1359 1364 1364 1363 1365 1368 1368 1370 1370 1373 1372 1371 1372 1374 1375 1379 1381 1385 1391 1395 1396 1396 1398 1401 1403 1404 1406 1404 1402 1404 1405 1403 1402 1400
1370 1358 1366 1370 1358 1349 1349 1352 1356 1359 1356 1360 1362 1364 1364 1364 1366 1369 1369 1372 1372 1370 1372 1375 1377 1378 1381 1384 1388 1392 1395 1397 1398 1399 1399 1399 1400 1401 1400 1397 1397 1396 1395 1396
1355 1350 1353 1355 1341 1342 1346 1351 1354 1356 1356 1358 1358 1359 1360 1361 1363 1366 1369 1369 1371 1371 1372 1374 1377 1379 1381 1382 1384 1387 1389 1391 1394 1396 1397 1397 1394 1395 1397 1392 1393 1393 1392 1391
1351 1353 1348 1344 1346 1347 1347 1346 1351 1352 1354 1355 1356 1356 1359 1362 1361 1362 1363 1364 1367 1368 1371 1371 1374 1378 1382 1383 1385 1386 1388 1389 1390 1391 1391 1391 1392 1390 1391 1389 1387 1387 1389 1389
1358 1353 1353 1346 1346 1342 1343 1345 1349 1349 1352 1351 1352 1353 1353 1352 1356 1359 1359 1359 1363 1363 1365 1368 1371 1372 1377 1377 1380 1382 1384 1384 1385 1386 1386 1386 1386 1389 1386 1385 1382 1383 1385 1385